Location: Lake Sonoma
(38.7200°N, 123.0564°W)
Time: 05:13:30
(UTC-07:00)

Amateur Radio Satellites - All Passes

Search period start: 30 October 2014 04:43
Search period end: 31 October 2014 04:43
Location: Lake Sonoma, 38.7200°N, 123.0564°W

Satellite Date Start Highest point End Downlink Frequencies (MHz)
Time Altitude Azimuth
TMSAT-1 30 Oct 04:44:11 04:49:20 54° 288° (WNW) 04:54:28 436.925 FM
AO-7 30 Oct 04:54:38 05:02:26 42° 100° (E) 05:10:11 29.400 - 29.500 MHz
RS-15 30 Oct 04:57:39 05:07:04 30° 36° (NE) 05:16:44 29.354 - 29.394 USB, Beacon 29.352 USB
Sapphire 30 Oct 05:01:17 05:04:17 15° 316° (NW) 05:07:17 437.095 MHz 1200 baud AX-25 AFSK
OPAL 30 Oct 05:10:04 05:14:59 49° 70° (ENE) 05:19:52 ?
Uribyol 2 30 Oct 05:17:27 05:18:40 11° 301° (WNW) 05:19:53 436.500 FM
Uosat F 30 Oct 05:41:58 05:47:02 78° 103° (ESE) 05:52:04 435.120 FM
PANSAT 30 Oct 05:47:57 05:50:19 16° 172° (S) 05:52:41 not established
Hamsat 30 Oct 06:12:46 06:16:03 22° 95° (E) 06:19:21 145.90 MHz
JAS-2 30 Oct 06:23:48 06:31:35 61° 100° (E) 06:39:05 435.800 - 435.900 CW/SSB, 435.910 FM
Saudisat 1A 30 Oct 06:46:25 06:50:47 74° 302° (WNW) 06:55:12 436.775 MHz
AO-7 30 Oct 06:47:28 06:55:08 43° 297° (WNW) 07:02:49 29.400 - 29.500 MHz
OPAL 30 Oct 06:50:35 06:54:04 18° 265° (W) 06:57:34 ?
STRAND 1 30 Oct 07:03:58 07:09:03 69° 74° (ENE) 07:14:11 ?
RS-15 30 Oct 07:09:44 07:21:00 89° 241° (WSW) 07:32:46 29.354 - 29.394 USB, Beacon 29.352 USB
Uosat F 30 Oct 07:23:06 07:25:07 12° 299° (WNW) 07:27:09 435.120 FM
PANSAT 30 Oct 07:27:18 07:29:50 17° 185° (S) 07:32:21 not established
Hamsat 30 Oct 07:48:21 07:51:58 28° 289° (WNW) 07:55:36 145.90 MHz
SO-67 30 Oct 07:59:19 08:02:38 44° 99° (E) 08:05:56 435.3500 MHz FM
JAS-2 30 Oct 08:09:32 08:16:01 30° 297° (WNW) 08:22:25 435.800 - 435.900 CW/SSB, 435.910 FM
Saudisat 1A 30 Oct 08:30:22 08:31:08 10° 321° (NW) 08:31:54 436.775 MHz
HO-68 30 Oct 08:45:53 08:49:52 15° 90° (E) 08:53:50 435.675 MHz FM
STRAND 1 30 Oct 08:46:27 08:48:42 13° 269° (W) 08:50:58 ?
MaSat-1 30 Oct 09:03:17 09:05:17 22° 252° (WSW) 09:07:12 437.345 MHz
RS-15 30 Oct 09:24:18 09:31:53 21° 259° (W) 09:39:42 29.354 - 29.394 USB, Beacon 29.352 USB
UKube-1 30 Oct 09:50:22 09:52:33 14° 92° (E) 09:54:44 145.840 MHz, 145.915 MHz
ISS 30 Oct 09:59:07 10:01:35 20° 131° (SE) 10:04:04 145.800 FM
Oscar 11 30 Oct 10:24:56 10:28:50 33° 97° (E) 10:32:43 145.825 FM, Beacon 2401.500 USB
HO-68 30 Oct 10:31:07 10:38:21 86° 287° (WNW) 10:45:32 435.675 MHz FM
FUNcube-1 30 Oct 10:39:20 10:42:19 19° 94° (E) 10:45:16 145.950 - 145.970 MHz USB
PCSat 30 Oct 10:44:06 10:47:06 15° 44° (NE) 10:50:04 145.825 MHz
KITSAT 1 30 Oct 11:10:37 11:18:29 59° 113° (ESE) 11:26:21 435.175 FM
UKube-1 30 Oct 11:24:46 11:28:59 49° 287° (WNW) 11:33:11 145.840 MHz, 145.915 MHz
ZACube-1 30 Oct 11:31:27 11:35:40 81° 102° (ESE) 11:39:49 437.345 MHz
ISS 30 Oct 11:34:55 11:38:05 41° 327° (NNW) 11:41:15 145.800 FM
SO-50 30 Oct 12:01:30 12:05:59 81° 302° (WNW) 12:10:37 436.795 FM
Oscar 11 30 Oct 12:01:38 12:04:47 20° 292° (WNW) 12:07:55 145.825 FM, Beacon 2401.500 USB
Sapphire 30 Oct 12:04:04 12:09:25 54° 58° (ENE) 12:14:42 437.095 MHz 1200 baud AX-25 AFSK
FUNcube-1 30 Oct 12:15:02 12:18:45 31° 289° (WNW) 12:22:25 145.950 - 145.970 MHz USB
HO-68 30 Oct 12:20:54 12:25:01 16° 305° (NW) 12:29:08 435.675 MHz FM
PCSat 30 Oct 12:25:50 12:31:17 89° 62° (ENE) 12:36:42 145.825 MHz
Oscar 16 30 Oct 12:43:13 12:46:34 18° 64° (ENE) 12:49:54 437.025 USB, Beacon 2401.1428
UOSAT-12 30 Oct 12:51:44 12:55:45 30° 113° (ESE) 12:59:51 437.025 FM, 437.400 FM
KITSAT 1 30 Oct 13:07:06 13:14:15 34° 313° (NW) 13:21:27 435.175 FM
JAS-1B 30 Oct 13:07:47 13:12:37 29° 66° (ENE) 13:17:24 435.800 - 435.900 CW/SSB
ISS 30 Oct 13:14:09 13:15:29 12° 346° (NNW) 13:16:50 145.800 FM
Uribyol 2 30 Oct 13:14:45 13:17:39 15° 62° (ENE) 13:20:32 436.500 FM
ITAMSAT 1 30 Oct 13:22:04 13:25:17 17° 62° (ENE) 13:28:29 435.822 SSB
AO-Echo 30 Oct 13:26:07 13:29:54 22° 65° (ENE) 13:33:47 ?
Oscar 19 30 Oct 13:33:35 13:38:33 51° 72° (ENE) 13:43:31 437.125 CW, 437.150 USB
SO-50 30 Oct 13:45:35 13:47:20 12° 321° (NW) 13:49:05 436.795 FM
Sapphire 30 Oct 13:48:36 13:52:22 19° 255° (WSW) 13:56:07 437.095 MHz 1200 baud AX-25 AFSK
AO-27 30 Oct 14:07:20 14:12:15 44° 71° (ENE) 14:17:12 436.795 MHz FM
AO-7 30 Oct 14:08:10 14:09:08 10° 44° (NE) 14:10:05 29.400 - 29.500 MHz
PCSat 30 Oct 14:12:51 14:13:51 11° 259° (WSW) 14:14:51 145.825 MHz
Gurwin Techsat 1B 30 Oct 14:17:37 14:22:07 29° 67° (ENE) 14:26:38 435.225 FM
Oscar 16 30 Oct 14:20:24 14:25:27 55° 259° (W) 14:30:30 437.025 USB, Beacon 2401.1428
TMSAT-1 30 Oct 14:24:57 14:29:12 25° 66° (ENE) 14:33:28 436.925 FM
UOSAT-12 30 Oct 14:31:44 14:35:51 30° 310° (NW) 14:40:02 437.025 FM, 437.400 FM
Uribyol 2 30 Oct 14:51:20 14:56:31 68° 258° (WSW) 15:01:45 436.500 FM
JAS-1B 30 Oct 14:58:01 15:03:14 33° 263° (W) 15:08:20 435.800 - 435.900 CW/SSB
ITAMSAT 1 30 Oct 14:59:05 15:04:14 61° 259° (WSW) 15:09:25 435.822 SSB
AO-Echo 30 Oct 15:03:41 15:08:20 41° 262° (W) 15:13:11 ?
KITSAT 1 30 Oct 15:11:26 15:12:41 10° 340° (NNW) 15:13:57 435.175 FM
Saudisat 1A 30 Oct 15:14:17 15:18:40 58° 56° (NE) 15:23:00 436.775 MHz
Oscar 19 30 Oct 15:14:47 15:18:09 18° 267° (W) 15:21:32 437.125 CW, 437.150 USB
Uosat F 30 Oct 15:19:31 15:20:50 11° 60° (ENE) 15:22:09 435.120 FM
AO-27 30 Oct 15:48:04 15:51:56 21° 266° (W) 15:55:50 436.795 MHz FM
AO-7 30 Oct 15:52:05 15:59:57 51° 65° (ENE) 16:07:51 29.400 - 29.500 MHz
Gurwin Techsat 1B 30 Oct 15:57:11 16:01:57 33° 263° (W) 16:06:44 435.225 FM
TMSAT-1 30 Oct 16:03:57 16:08:53 39° 262° (W) 16:13:50 436.925 FM
ISS 30 Oct 16:28:25 16:31:07 22° 26° (NNE) 16:33:49 145.800 FM
JAS-2 30 Oct 16:35:48 16:40:32 22° 59° (ENE) 16:45:40 435.800 - 435.900 CW/SSB, 435.910 FM
Uosat F 30 Oct 16:53:49 16:58:50 88° 256° (WSW) 17:03:55 435.120 FM
Saudisat 1A 30 Oct 16:55:35 16:57:43 13° 252° (WSW) 16:59:50 436.775 MHz
Hamsat 30 Oct 17:06:03 17:08:14 14° 66° (ENE) 17:10:24 145.90 MHz
OPAL 30 Oct 17:23:10 17:25:29 13° 93° (E) 17:27:47 ?
AO-7 30 Oct 17:45:36 17:52:53 34° 262° (W) 18:00:16 29.400 - 29.500 MHz
ISS 30 Oct 18:04:44 18:07:59 48° 223° (SW) 18:11:12 145.800 FM
JAS-2 30 Oct 18:18:44 18:24:49 64° 260° (W) 18:31:47 435.800 - 435.900 CW/SSB, 435.910 FM
Oscar 10/S400 30 Oct 18:25:00 18:47:43 64° 184° (S) 03:45:58 145.825 - 145.975 CW/USB, Beacon 145.810 USB
SO-67 30 Oct 18:32:12 18:33:45 13° 68° (ENE) 18:35:17 435.3500 MHz FM
Hamsat 30 Oct 18:39:44 18:43:46 46° 261° (W) 18:47:48 145.90 MHz
SO-50 30 Oct 18:56:32 18:57:32 11° 37° (NE) 18:58:33 436.795 FM
OPAL 30 Oct 18:59:52 19:04:46 63° 289° (WNW) 19:09:38 ?
KITSAT 1 30 Oct 19:05:41 19:12:07 25° 42° (NE) 19:18:30 435.175 FM
HO-68 30 Oct 19:16:24 19:18:27 11° 51° (NE) 19:20:30 435.675 MHz FM
STRAND 1 30 Oct 19:16:34 19:20:49 26° 95° (E) 19:25:02 ?
AO-40 30 Oct 19:18:47 00:18:12 40° 141° (SE) 01:51:45 Beacon 2401.320
RS-15 30 Oct 19:27:48 19:31:43 13° 96° (E) 19:35:37 29.354 - 29.394 USB, Beacon 29.352 USB
SO-67 30 Oct 20:03:16 20:06:23 32° 263° (W) 20:09:31 435.3500 MHz FM
SO-50 30 Oct 20:34:13 20:39:03 63° 56° (ENE) 20:43:53 436.795 FM
UKube-1 30 Oct 20:46:00 20:47:12 11° 62° (ENE) 20:48:25 145.840 MHz, 145.915 MHz
STRAND 1 30 Oct 20:55:23 21:00:02 35° 291° (WNW) 21:04:39 ?
HO-68 30 Oct 20:57:42 21:04:44 63° 70° (ENE) 21:11:49 435.675 MHz FM
KITSAT 1 30 Oct 21:00:21 21:08:27 83° 243° (WSW) 21:16:31 435.175 FM
Oscar 11 30 Oct 21:19:07 21:22:30 23° 68° (ENE) 21:25:54 145.825 FM, Beacon 2401.500 USB
UOSAT-12 30 Oct 21:22:35 21:26:13 21° 46° (NE) 21:29:48 437.025 FM, 437.400 FM
RS-15 30 Oct 21:31:00 21:41:54 70° 115° (ESE) 21:52:43 29.354 - 29.394 USB, Beacon 29.352 USB
FUNcube-1 30 Oct 21:35:00 21:37:38 16° 66° (ENE) 21:40:15 145.950 - 145.970 MHz USB
SO-50 30 Oct 22:16:24 22:19:05 15° 252° (WSW) 22:21:46 436.795 FM
UKube-1 30 Oct 22:18:28 22:22:47 68° 258° (WSW) 22:27:09 145.840 MHz, 145.915 MHz
ZACube-1 30 Oct 22:26:06 22:30:33 55° 74° (ENE) 22:34:55 437.345 MHz
MaSat-1 30 Oct 22:35:47 22:39:46 76° 114° (ESE) 22:43:21 437.345 MHz
HO-68 30 Oct 22:47:28 22:52:52 23° 266° (W) 22:58:20 435.675 MHz FM
Oscar 11 30 Oct 22:54:47 22:58:32 29° 264° (W) 23:02:17 145.825 FM, Beacon 2401.500 USB
KITSAT 1 30 Oct 22:58:36 23:02:36 15° 260° (W) 23:06:36 435.175 FM
UOSAT-12 30 Oct 23:02:05 23:06:37 48° 244° (WSW) 23:11:02 437.025 FM, 437.400 FM
FUNcube-1 30 Oct 23:09:12 23:13:36 49° 261° (W) 23:17:57 145.950 - 145.970 MHz USB
RS-15 30 Oct 23:45:16 23:55:04 36° 319° (NW) 00:04:57 29.354 - 29.394 USB, Beacon 29.352 USB
ZACube-1 31 Oct 00:05:08 00:07:12 13° 269° (W) 00:09:16 437.345 MHz
PCSat 31 Oct 01:26:11 01:28:41 13° 103° (ESE) 01:31:10 145.825 MHz
Oscar 19 31 Oct 01:47:23 01:51:05 20° 93° (E) 01:54:46 437.125 CW, 437.150 USB
RS-15 31 Oct 02:05:39 02:12:07 17° 353° (N) 02:18:40 29.354 - 29.394 USB, Beacon 29.352 USB
AO-27 31 Oct 02:22:48 02:26:14 18° 93° (E) 02:29:38 436.795 MHz FM
Oscar 16 31 Oct 02:33:21 02:38:24 58° 101° (E) 02:43:26 437.025 USB, Beacon 2401.1428
Gurwin Techsat 1B 31 Oct 02:36:55 02:38:54 12° 90° (E) 02:40:53 435.225 FM
JAS-1B 31 Oct 02:39:59 02:47:11 65° 102° (ESE) 02:55:46 435.800 - 435.900 CW/SSB
Sapphire 31 Oct 02:44:18 02:49:39 66° 115° (ESE) 02:55:02 437.095 MHz 1200 baud AX-25 AFSK
Uribyol 2 31 Oct 03:05:33 03:10:35 48° 100° (E) 03:15:34 436.500 FM
PCSat 31 Oct 03:05:59 03:11:22 75° 299° (WNW) 03:16:49 145.825 MHz
AO-Echo 31 Oct 03:11:45 03:17:06 73° 102° (ESE) 03:22:20 ?
ITAMSAT 1 31 Oct 03:13:21 03:18:28 54° 101° (E) 03:23:32 435.822 SSB
Oscar 19 31 Oct 03:25:45 03:30:37 45° 289° (WNW) 03:35:27 437.125 CW, 437.150 USB
AO-7 31 Oct 03:57:08 04:01:48 16° 91° (E) 04:06:27 29.400 - 29.500 MHz
AO-27 31 Oct 04:00:57 04:06:02 53° 288° (WNW) 04:11:04 436.795 MHz FM
Gurwin Techsat 1B 31 Oct 04:14:05 04:19:24 76° 285° (WNW) 04:24:41 435.225 FM
Oscar 16 31 Oct 04:14:06 04:17:15 17° 297° (WNW) 04:20:24 437.025 USB, Beacon 2401.1428
TMSAT-1 31 Oct 04:20:41 04:26:01 88° 285° (WNW) 04:31:18 436.925 FM
RS-15 31 Oct 04:21:35 04:30:16 25° 30° (NNE) 04:39:08 29.354 - 29.394 USB, Beacon 29.352 USB
Sapphire 31 Oct 04:29:45 04:33:34 19° 313° (NW) 04:37:24 437.095 MHz 1200 baud AX-25 AFSK
